Vorticity
5 5 6 6 2 0 -0 4 8 1 2 1 1 -2 2 13 26 20 6 5 10 2 19 47 23 23 27 12 12 21 35 35 4 -9 17 3 7 8 3 18 -8 27 9 11 5 12 14
5 5 7 6 8 -1 3 5 6 2 2 1 0 0 3 5 29 25 4 8 9 6 27 35 27 8 29 6 12 26 41 16 24 12 -8 20 22 1 7 13 -0 -29 20 12 14 4 -0
5 4 7 2 7 1 4 1 2 5 2 3 0 1 0 -3 37 24 6 8 10 13 35 30 35 34 33 16 7 19 52 7 -16 50 2 39 35 10 10 11 6 7 6 3 24 26 -17
3 6 7 6 5 3 4 2 3 9 3 5 1 -0 -1 3 26 25 6 10 8 15 35 -4 2 10 10 59 12 19 58 9 -15 -14 8 -3 19 17 5 18 5 -1 10 -15 31 -12 0
5 4 4 6 4 5 4 1 5 11 2 1 1 -1 0 0 22 33 10 9 4 11 31 3 1 -0 21 14 29 31 59 10 15 -11 18 13 2 27 12 16 5 5 11 -12 0 21 6
6 6 5 4 7 5 5 2 4 11 7 3 2 2 3 4 16 33 12 8 8 10 37 19 -11 -4 8 19 -20 64 52 3 18 14 -14 19 24 15 -2 8 7 -6 4 -5 1 5 14
6 6 5 4 5 3 7 3 5 10 7 4 3 3 2 1 15 29 17 10 10 7 22 6 -0 -0 4 4 19 45 51 10 25 -38 3 26 11 25 12 11 10 10 4 13 -4 -4 5
8 6 5 6 2 5 7 5 4 10 4 5 4 3 2 5 11 26 22 6 14 3 18 44 31 11 5 16 28 56 24 15 7 4 -21 13 30 10 17 10 5 9 0 6 12 7 6
9 8 6 6 3 6 8 1 2 9 9 3 3 3 4 2 8 31 24 6 11 7 3 -4 52 28 4 34 33 61 -1 9 15 -17 7 -10 -3 12 14 21 7 5 8 3 9 10 7
9 9 5 6 5 7 7 2 2 8 8 4 4 3 2 4 14 24 33 5 8 17 -12 -13 7 48 36 21 40 24 28 7 2 2 -18 16 17 16 12 28 -3 6 5 3 12 -2 4
7 9 6 6 4 7 7 3 2 7 6 6 5 6 3 4 4 29 35 10 7 15 2 3 8 24 37 0 26 19 16 10 10 -10 11 4 14 13 14 7 13 -1 2 2 15 5 11
6 6 5 5 4 10 6 5 3 5 5 4 2 4 3 2 3 12 47 24 5 10 16 0 11 6 24 14 7 23 21 3 12 -12 -4 10 -6 14 5 14 11 18 9 5 14 4 0
7 6 4 5 5 12 5 5 4 4 4 3 5 2 3 2 4 7 58 37 8 5 36 1 7 4 25 20 12 3 2 4 -6 4 9 17 15 0 2 4 4 20 5 3 5 8 8
6 8 2 4 7 12 4 4 5 3 1 3 4 3 3 3 3 6 24 41 11 7 31 -5 -9 17 18 28 -2 14 -16 19 15 18 1 18 5 6 9 6 11 4 13 9 4 3 3
5 8 4 1 9 10 4 3 4 3 1 3 4 4 2 3 2 4 19 42 27 6 12 2 -0 -1 21 26 -3 12 26 -4 1 9 5 9 15 19 13 14 10 6 13 9 5 7 4
3 7 6 3 12 5 5 4 2 6 5 4 3 5 5 4 3 4 12 45 42 6 4 11 5 11 2 17 10 6 -1 -7 4 -1 0 1 12 20 21 14 8 0 9 9 7 6 3
2 8 5 4 11 2 1 5 6 2 1 4 5 6 5 3 4 3 6 29 42 31 2 6 6 -3 7 21 18 24 5 1 5 19 5 9 10 9 9 9 6 6 8 7 5 5 5
3 7 6 4 11 7 0 4 3 5 0 6 7 6 5 2 4 2 7 16 44 36 12 2 8 4 8 8 -4 27 -0 9 10 -3 5 4 -1 6 9 9 9 8 8 9 11 7 7
1 8 5 5 13 10 5 0 4 5 4 3 9 3 4 2 6 2 3 16 39 26 25 5 5 6 8 4 5 0 29 19 2 21 12 4 -1 12 13 13 10 13 20 16 9 7 9
2 1 6 7 10 2 2 3 1 5 7 6 7 6 6 3 6 -0 3 8 37 27 37 15 4 2 8 8 12 3 12 6 5 4 7 12 10 9 11 3 6 7 7 7 10 8 1
2 -4 12 5 10 3 12 0 2 6 5 6 7 0 8 3 5 -1 2 9 36 23 31 27 10 8 3 7 8 16 5 6 10 -2 -10 7 8 6 5 4 4 5 7 5 4 2 3
-0 -5 1 6 2 5 5 0 6 5 4 4 5 6 6 0 6 2 3 9 18 35 29 33 15 5 9 5 5 7 11 16 5 1 6 15 2 6 3 3 2 3 5 7 7 6 11
3 6 -0 -2 12 3 15 -2 6 4 -4 10 5 2 4 3 5 7 3 4 12 34 34 26 29 12 5 7 3 7 8 9 11 14 18 15 10 8 8 12 14 13 17 19 12 14 16
-1 -0 5 -2 19 5 11 -10 13 3 -6 19 5 7 7 9 4 9 2 8 13 13 42 24 39 15 11 9 10 5 5 8 12 12 11 11 8 6 4 5 9 11 9 7 14 15 11
2 6 -4 1 0 5 -2 -7 7 3 -1 10 -0 12 7 8 2 6 3 6 14 12 37 31 24 27 12 9 13 12 7 7 7 12 11 11 9 8 8 10 9 10 10 8 9 10 11
27 1 4 9 -9 9 -8 17 -7 6 3 4 16 9 12 5 3 7 2 5 15 12 35 24 24 36 12 12 14 14 13 9 10 5 9 11 12 13 14 9 8 7 9 9 9 10 9
27 -1 5 12 5 7 7 4 -6 -3 6 9 14 8 9 4 5 5 3 6 12 12 29 31 17 26 26 10 10 10 11 12 11 11 7 6 10 11 11 14 15 13 11 10 9 8 12
5 18 14 -1 5 -7 1 -5 -3 5 -1 1 18 11 4 6 5 7 3 6 7 9 17 19 17 28 23 13 1 12 11 12 13 11 12 12 13 14 15 13 10 11 12 13 15 12 12
22 18 1 13 3 12 -5 2 7 -1 3 -4 17 7 14 6 6 7 2 6 8 4 11 20 16 17 22 21 12 -1 7 10 12 11 10 14 12 10 11 12 13 12 11 12 10 11 11
Height
5818 5815 5812 5807 5800 5794 5788 5780 5772 5763 5752 5740 5727 5714 5701 5685 5671 5658 5648 5634 5620 5605 5589 5575 5569 5566 5567 5571 5574 5579 5587 5597 5613 5626 5638 5649 5660 5672 5685 5700 5711 5722 5728 5735 5742 5753 5759
5813 5810 5808 5803 5798 5790 5784 5776 5769 5760 5748 5737 5725 5711 5697 5683 5668 5656 5645 5630 5616 5601 5588 5575 5569 5567 5566 5569 5571 5576 5582 5595 5609 5621 5634 5645 5657 5668 5682 5696 5704 5711 5721 5730 5739 5747 5753
5810 5806 5804 5799 5793 5788 5780 5773 5765 5756 5745 5735 5723 5709 5696 5681 5666 5654 5643 5630 5616 5602 5589 5577 5571 5568 5566 5567 5570 5574 5580 5590 5605 5620 5634 5642 5653 5666 5680 5689 5699 5710 5719 5729 5735 5742 5747
5804 5802 5798 5795 5789 5784 5777 5770 5762 5753 5743 5733 5720 5707 5694 5679 5665 5653 5643 5630 5618 5606 5595 5586 5578 5572 5568 5566 5569 5572 5578 5589 5603 5621 5632 5642 5652 5663 5674 5685 5697 5706 5715 5721 5725 5734 5741
5801 5796 5794 5791 5786 5780 5774 5766 5759 5751 5741 5730 5719 5706 5692 5680 5666 5654 5642 5631 5620 5609 5599 5593 5586 5579 5575 5571 5569 5571 5576 5591 5605 5620 5632 5642 5651 5661 5673 5682 5691 5700 5710 5717 5724 5731 5739
5794 5792 5790 5786 5781 5777 5771 5763 5756 5748 5739 5728 5717 5705 5693 5681 5667 5653 5642 5632 5621 5612 5603 5596 5591 5587 5579 5574 5571 5569 5577 5592 5605 5618 5630 5639 5651 5660 5669 5679 5692 5701 5707 5715 5723 5730 5735
5789 5786 5784 5781 5777 5772 5768 5761 5753 5745 5737 5726 5716 5705 5692 5679 5667 5653 5644 5635 5625 5615 5605 5597 5593 5588 5584 5577 5572 5572 5581 5596 5607 5622 5631 5640 5651 5662 5673 5681 5686 5697 5706 5715 5721 5727 5730
5782 5779 5778 5776 5772 5768 5764 5758 5751 5743 5734 5724 5714 5703 5691 5680 5667 5654 5645 5637 5626 5618 5608 5598 5593 5589 5588 5583 5577 5578 5588 5601 5613 5625 5634 5644 5653 5661 5669 5679 5687 5695 5703 5710 5716 5722 5726
5775 5773 5771 5770 5767 5764 5760 5755 5748 5740 5732 5722 5712 5702 5691 5680 5667 5655 5645 5639 5630 5622 5613 5604 5596 5591 5590 5586 5584 5586 5596 5608 5620 5631 5640 5648 5655 5662 5669 5678 5686 5694 5703 5709 5714 5718 5723
5766 5767 5765 5764 5761 5759 5755 5751 5745 5737 5729 5720 5711 5701 5691 5680 5668 5656 5647 5641 5633 5626 5617 5612 5602 5595 5593 5591 5591 5598 5607 5618 5627 5636 5643 5651 5658 5663 5670 5677 5686 5693 5699 5705 5711 5716 5721
5759 5760 5760 5759 5756 5754 5750 5747 5741 5734 5726 5719 5710 5701 5691 5680 5669 5658 5648 5643 5636 5630 5624 5621 5613 5605 5601 5603 5605 5609 5617 5625 5635 5641 5647 5654 5659 5664 5671 5678 5684 5692 5698 5704 5710 5714 5718
5752 5752 5753 5753 5750 5749 5746 5744 5738 5731 5724 5717 5708 5700 5691 5681 5669 5659 5647 5643 5639 5636 5630 5626 5623 5618 5617 5615 5616 5620 5625 5633 5639 5645 5651 5656 5661 5665 5671 5676 5682 5688 5695 5702 5707 5711 5715
5745 5745 5747 5746 5744 5743 5741 5739 5734 5728 5721 5715 5706 5698 5690 5680 5670 5658 5648 5643 5642 5638 5634 5633 5629 5628 5626 5626 5626 5628 5633 5639 5643 5648 5651 5655 5660 5665 5670 5675 5681 5686 5693 5698 5703 5707 5711
5737 5738 5739 5740 5739 5738 5736 5734 5730 5725 5718 5712 5705 5696 5689 5680 5670 5659 5650 5643 5642 5639 5636 5635 5634 5633 5633 5634 5634 5635 5639 5643 5646 5650 5653 5656 5660 5664 5668 5673 5680 5685 5690 5696 5700 5703 5706
5728 5730 5732 5733 5732 5732 5731 5729 5726 5721 5715 5709 5703 5696 5688 5679 5671 5661 5652 5644 5641 5639 5637 5637 5636 5636 5637 5639 5641 5642 5642 5646 5648 5652 5655 5657 5660 5663 5667 5672 5678 5683 5687 5693 5697 5700 5703
5720 5722 5724 5726 5726 5726 5725 5724 5722 5717 5712 5706 5701 5694 5687 5679 5670 5662 5652 5644 5639 5639 5637 5637 5637 5638 5639 5640 5643 5644 5646 5648 5650 5654 5656 5659 5661 5664 5668 5672 5676 5680 5686 5690 5693 5696 5698
5710 5714 5716 5718 5719 5720 5720 5719 5717 5713 5708 5703 5698 5692 5685 5677 5670 5662 5652 5644 5637 5635 5637 5638 5638 5639 5640 5641 5642 5644 5648 5650 5651 5654 5657 5659 5662 5665 5667 5670 5675 5680 5682 5685 5689 5691 5693
5701 5705 5708 5711 5712 5713 5714 5714 5712 5709 5704 5699 5695 5690 5683 5676 5670 5660 5650 5641 5634 5631 5634 5635 5637 5637 5639 5641 5643 5644 5646 5649 5651 5654 5656 5658 5661 5664 5667 5670 5673 5676 5678 5682 5684 5688 5690
5691 5696 5699 5703 5705 5707 5708 5709 5707 5704 5700 5695 5691 5686 5681 5674 5668 5660 5650 5641 5633 5629 5629 5632 5634 5636 5637 5638 5642 5643 5644 5646 5649 5651 5654 5657 5659 5661 5664 5667 5668 5671 5675 5679 5681 5682 5684
5680 5686 5691 5695 5698 5700 5702 5703 5702 5699 5695 5692 5688 5683 5678 5672 5666 5659 5648 5639 5631 5626 5624 5627 5629 5632 5633 5634 5637 5640 5642 5645 5648 5650 5652 5654 5656 5658 5662 5664 5667 5669 5672 5674 5675 5675 5680
5670 5676 5681 5686 5689 5692 5694 5697 5696 5694 5691 5687 5684 5680 5676 5669 5663 5657 5647 5637 5629 5624 5620 5621 5624 5627 5630 5631 5633 5636 5640 5643 5645 5647 5650 5652 5654 5657 5659 5662 5664 5666 5667 5669 5670 5673 5673
5660 5666 5671 5678 5681 5684 5687 5689 5690 5689 5686 5683 5679 5676 5672 5666 5661 5655 5647 5637 5627 5620 5617 5618 5619 5622 5625 5627 5630 5632 5635 5638 5642 5645 5646 5649 5652 5654 5656 5658 5659 5661 5663 5665 5665 5667 5667
5651 5657 5664 5670 5674 5677 5679 5682 5683 5683 5682 5678 5675 5672 5668 5664 5658 5655 5647 5637 5627 5618 5614 5612 5613 5617 5620 5622 5625 5628 5630 5633 5636 5638 5641 5644 5646 5649 5651 5653 5653 5656 5657 5657 5657 5658 5659
5641 5649 5655 5662 5666 5670 5673 5675 5676 5677 5676 5674 5670 5667 5664 5660 5655 5652 5645 5635 5627 5618 5612 5609 5608 5611 5615 5617 5621 5624 5627 5629 5632 5635 5638 5639 5641 5643 5646 5647 5648 5650 5650 5650 5651 5651 5652
5630 5640 5647 5654 5659 5663 5667 5669 5670 5671 5671 5669 5666 5662 5660 5655 5651 5647 5641 5634 5626 5617 5610 5606 5604 5606 5608 5612 5616 5619 5622 5625 5628 5630 5633 5635 5637 5639 5640 5642 5644 5644 5645 5645 5644 5645 5646
5620 5630 5638 5645 5650 5655 5659 5662 5665 5665 5665 5664 5660 5657 5655 5652 5647 5644 5638 5631 5624 5615 5608 5603 5600 5602 5605 5608 5611 5614 5617 5621 5623 5626 5628 5629 5631 5634 5635 5636 5637 5638 5638 5639 5639 5638 5639
5611 5620 5629 5636 5643 5648 5652 5655 5658 5660 5660 5659 5655 5653 5651 5647 5644 5641 5637 5630 5622 5613 5606 5599 5598 5598 5599 5602 5606 5610 5613 5615 5618 5621 5623 5625 5626 5628 5629 5629 5631 5631 5632 5633 5634 5636 5635
5602 5612 5620 5628 5635 5640 5645 5648 5651 5654 5654 5653 5650 5648 5646 5643 5640 5638 5633 5627 5620 5611 5604 5599 5597 5596 5596 5599 5603 5605 5607 5610 5613 5615 5616 5619 5620 5622 5623 5623 5625 5625 5627 5627 5627 5627 5627
5595 5604 5612 5620 5627 5632 5638 5641 5644 5647 5649 5648 5645 5643 5641 5639 5637 5634 5629 5625 5617 5610 5603 5598 5596 5594 5594 5595 5597 5600 5603 5604 5607 5609 5609 5612 5614 5615 5616 5617 5618 5618 5619 5620 5620 5620 5621